Weather History for Quakertown, PA

Change the Weather History Date:

Saturday, March 16, 2013

  Actual Average (KABE) Record (KABE)
Temperature  
Mean Temperature 37 °F 39 °F  
Max Temperature 42 °F 49 °F 80 °F (1945)
Min Temperature 32 °F 29 °F 11 °F (1993)
Degree Days  
Heating Degree Days 28 26  
Month to date heating degree days 456  
Since 1 July heating degree days 4765  
Cooling Degree Days 0 0  
Month to date cooling degree days 0  
Year to date cooling degree days 0  
Moisture  
Dew Point 29 °F    
Average Humidity 82    
Maximum Humidity 93    
Minimum Humidity 57    
Precipitation  
Precipitation 0.09 in 0.11 in 0.97 in (1974)
Month to date precipitation 1.63  
Year to date precipitation 7.36  
Snow  
Snow 0.00 in 0.20 in 12.00 in (1896)
Month to date snowfall 3.3  
Since 1 July snowfall 30.3  
Snow Depth -    
Sea Level Pressure  
Sea Level Pressure 29.81 in    
Wind  
Wind Speed 4 mph (NNE)    
Max Wind Speed 8 mph    
Max Gust Speed -    
Visibility 8 miles    
Events      
T = Trace of Precipitation, MM = Missing Value Source: NWS Daily Summary

Daily Weather History Graph

Daily Weather History Graph

Search for Another Location

Airport:

Trip Planner

Search our weather history database for the weather conditions in past years. The results will help you decide how hot, cold, wet, or windy it might be!

Date:

Astronomy

Mar. 16, 2013 Rise Set
Actual Time 7:11 AM EDT 7:09 PM EDT
Civil Twilight 6:43 AM EDT 7:36 PM EDT
Nautical Twilight 6:12 AM EDT 8:08 PM EDT
Astronomical Twilight 5:40 AM EDT 8:40 PM EDT
Moon 9:38 AM EDT (3/16) No Moon Set
Length of Visible Light 12h 52m
Length of Day
11h 58m
Waxing Crescent, 23% of the Moon is Illuminated
Mar 16
Waxing Crescent
Mar 19
First Quarter
Mar 27
Full
Apr 3
Last Quarter
Apr 10
New

Hourly Weather History & Observations

Time (EDT) Temp. Windchill Dew Point Humidity Pressure Visibility Wind Dir Wind Speed Gust Speed Precip Events Conditions
12:10 AM 42.8 °F 38.0 °F 28.4 °F 57% 29.78 in 10.0 mi West 8.1 mph - N/A   Clear
12:30 AM 42.8 °F 38.0 °F 28.4 °F 57% 29.78 in 10.0 mi West 8.1 mph - N/A   Scattered Clouds
12:50 AM 42.8 °F 38.6 °F 28.4 °F 57% 29.78 in 10.0 mi West 6.9 mph - N/A   Mostly Cloudy
1:10 AM 41.0 °F 35.8 °F 28.4 °F 61% 29.78 in 10.0 mi WNW 8.1 mph - N/A   Scattered Clouds
1:50 AM 41.0 °F - 28.4 °F 61% 29.79 in 10.0 mi Calm Calm - N/A   Overcast
2:10 AM 41.0 °F 38.0 °F 28.4 °F 61% 29.79 in 10.0 mi WNW 4.6 mph - N/A   Overcast
2:30 AM 41.0 °F 39.0 °F 28.4 °F 61% 29.80 in 10.0 mi NW 3.5 mph - N/A   Mostly Cloudy
2:50 AM 39.2 °F - 26.6 °F 61% 29.81 in 10.0 mi Calm Calm - N/A   Scattered Clouds
3:10 AM 39.2 °F 35.9 °F 26.6 °F 61% 29.81 in 10.0 mi WNW 4.6 mph - N/A   Mostly Cloudy
3:30 AM 39.2 °F 35.9 °F 26.6 °F 61% 29.81 in 10.0 mi NW 4.6 mph - N/A   Overcast
3:50 AM 39.2 °F - 26.6 °F 61% 29.81 in 10.0 mi Calm Calm - N/A   Overcast
4:10 AM 39.2 °F - 26.6 °F 61% 29.81 in 10.0 mi Calm Calm - N/A   Overcast
4:30 AM 39.2 °F 35.9 °F 26.6 °F 61% 29.81 in 10.0 mi NW 4.6 mph - N/A   Overcast
1:15 PM - - - N/A% - - North - - N/A   Unknown
1:30 PM 32.0 °F 28.7 °F 30.2 °F 93% 29.79 in 3.0 mi ENE 3.5 mph - 0.01 in   Unknown
1:50 PM 32.0 °F 27.5 °F 28.4 °F 87% 29.81 in 2.0 mi NE 4.6 mph - 0.02 in   Overcast
2:10 PM 32.0 °F 28.7 °F 30.2 °F 93% 29.80 in 1.0 mi ENE 3.5 mph - 0.01 in   Overcast
2:30 PM 32.0 °F 26.4 °F 30.2 °F 93% 29.79 in 1.0 mi East 5.8 mph - 0.03 in   Overcast
2:50 PM 32.0 °F 26.4 °F 30.2 °F 93% 29.77 in 0.5 mi East 5.8 mph - 0.05 in   Overcast
3:10 PM 32.0 °F 27.5 °F 30.2 °F 93% 29.78 in 0.5 mi NE 4.6 mph - N/A   Overcast
3:30 PM 32.0 °F 28.7 °F 30.2 °F 93% 29.77 in 1.0 mi ENE 3.5 mph - N/A   Overcast
3:50 PM 32.0 °F 26.4 °F 30.2 °F 93% 29.76 in 0.5 mi East 5.8 mph - 0.02 in   Overcast
4:10 PM 32.0 °F - 30.2 °F 93% 29.77 in 3.0 mi Calm Calm - N/A   Overcast
4:30 PM 32.0 °F 28.7 °F 30.2 °F 93% 29.77 in 4.0 mi NE 3.5 mph - N/A   Overcast
4:50 PM 32.0 °F 28.7 °F 30.2 °F 93% 29.77 in 5.0 mi ENE 3.5 mph - N/A   Overcast
5:10 PM 32.0 °F - 30.2 °F 93% 29.77 in 8.0 mi Calm Calm - N/A   Overcast
5:30 PM 32.0 °F 28.7 °F 30.2 °F 93% 29.78 in 3.0 mi NE 3.5 mph - N/A   Overcast
5:50 PM 32.0 °F 27.5 °F 30.2 °F 93% 29.77 in 5.0 mi ENE 4.6 mph - N/A   Overcast
6:10 PM 32.0 °F 28.7 °F 30.2 °F 93% 29.77 in 10.0 mi ENE 3.5 mph - N/A   Overcast
6:30 PM 32.0 °F - 28.4 °F 87% 29.78 in 10.0 mi Calm Calm - N/A   Overcast
6:50 PM 32.0 °F - 30.2 °F 93% 29.78 in 10.0 mi Calm Calm - N/A   Overcast
7:10 PM 32.0 °F 27.5 °F 30.2 °F 93% 29.80 in 10.0 mi NNE 4.6 mph - N/A   Overcast
7:30 PM 32.0 °F - 30.2 °F 93% 29.81 in 10.0 mi Calm Calm - N/A   Overcast
7:50 PM 32.0 °F 28.7 °F 28.4 °F 87% 29.82 in 10.0 mi NE 3.5 mph - N/A   Overcast
8:10 PM 32.0 °F 28.7 °F 30.2 °F 93% 29.83 in 10.0 mi North 3.5 mph - N/A   Overcast
8:30 PM 32.0 °F 26.4 °F 30.2 °F 93% 29.84 in 10.0 mi North 5.8 mph - N/A   Overcast
8:50 PM 32.0 °F 28.7 °F 30.2 °F 93% 29.85 in 10.0 mi North 3.5 mph - N/A   Overcast
9:10 PM 32.0 °F 28.7 °F 30.2 °F 93% 29.86 in 10.0 mi North 3.5 mph - N/A   Overcast
9:30 PM 32.0 °F 28.7 °F 28.4 °F 87% 29.86 in 10.0 mi NNE 3.5 mph - N/A   Overcast
9:50 PM 32.0 °F 28.7 °F 30.2 °F 93% 29.88 in 10.0 mi NNW 3.5 mph - N/A   Overcast
10:10 PM 32.0 °F - 30.2 °F 93% 29.89 in 10.0 mi Calm Calm - N/A   Overcast
10:30 PM 32.0 °F - 28.4 °F 87% 29.89 in 10.0 mi Calm Calm - N/A   Overcast
10:50 PM 32.0 °F - 28.4 °F 87% 29.90 in 10.0 mi Calm Calm - N/A   Overcast
11:10 PM 32.0 °F - 28.4 °F 87% 29.91 in 10.0 mi Calm Calm - N/A   Overcast
11:30 PM 32.0 °F - 28.4 °F 87% 29.92 in 10.0 mi Calm Calm - N/A   Overcast
11:50 PM 32.0 °F - 30.2 °F 93% 29.93 in 10.0 mi Calm Calm - N/A   Overcast